Regional Weather Roundup
Issued by NWS

Home | Current Version | Previous Version | Text Only | Print | Product List | Glossary On
Versions: 1 2 3 4 5 6 7 8 9 10 11 12 13 14 15 16 17 18 19 20 21 22 23 24 25 26 27 28 29 30 31 32 33 34 35 36 37 38 39 40 41 42 43 44 45 46 47 48 49 50
000
ASUS42 KFFC 081103
RWRGA
WEATHER ROUNDUP FOR GEORGIA
NATIONAL WEATHER SERVICE PEACHTREE CITY GA
600 AM EST THU DEC 08 2016

NOTE: "FAIR" INDICATES FEW OR NO CLOUDS BELOW 12,000 FEET WITH NO
SIGNIFICANT WEATHER AND/OR OBSTRUCTIONS TO VISIBILITY.

* = USE WITH CAUTION. THE STATIONS MARKED WITH AN ASTERISK MAY NOT
REPORT WEATHER SUCH AS PRECIPITATION, FOG, OR THUNDER AND ARE NOT
QUALITY CONTROLLED BY NWS.

THE REMARK "TC" DENOTES TEMPERATURE READING IN DEGREES CELSIUS.

GAZ001>058-081200-
NORTH GEORGIA

CITY           SKY/WX    TMP DP  RH WIND       PRES   REMARKS
ATLANTA        MOCLDY    41  37  86 NW10      30.14R
ATHENS         PTCLDY    44  41  89 W3        30.09R
CHAMBLEE       MOCLDY    42  36  79 NW10      30.13R
PEACHTREE CITY CLEAR     41  37  86 W6        30.17R
ROME           CLOUDY    42  32  67 N8        30.19R
WEST ATLANTA   PTCLDY    42  35  76 NW5       30.15R
GAINESVILLE    CLOUDY    43  39  86 W9        30.10R
CARTERSVILLE   MOCLDY    42  37  82 CALM      30.19R


CITY           SKY/WX    TMP DP  RH WIND       PRES   REMARKS
DALTON*        CLOUDY    41  32  70 N9        30.20R
MARIETTA       CLOUDY    42  36  78 NW12      30.14R
CANTON*        MOCLDY    41  32  70 NW9       30.14R
$$

GAZ059>098-102>109-081200-
CENTRAL GEORGIA

CITY           SKY/WX    TMP DP  RH WIND       PRES   REMARKS
AUGUSTA-BUSH   PTCLDY    49  45  86 W3        30.09R
AUGUSTA-DANIEL MOCLDY    49  43  80 W5        30.09R
COLUMBUS       MOCLDY    46  38  73 NW13      30.19R
MACON          PTCLDY    45  39  79 NW12      30.15R
ROBINS AFB     PTCLDY    46  40  78 NW9       30.15R


CITY           SKY/WX    TMP DP  RH WIND       PRES   REMARKS
LAGRANGE*      PTCLDY    43  41  91 NW8       30.19R
SYLVANIA*      CLEAR    N/A N/A N/A CALM      30.10R
MILLEDGEVILLE* PTCLDY    45  43  93 W6        30.13R
$$

GAZ099>101-110>166-081200-
SOUTH GEORGIA

CITY           SKY/WX    TMP DP  RH WIND       PRES   REMARKS
SAVANNAH       CLEAR     49  46  90 W7        30.10R
VALDOSTA       CLEAR     42  42 100 CALM      30.15R FOG
ALMA           PTCLDY    49  47  93 NW3       30.11R
ST SIMONS      CLEAR     51  49  92 W5        30.11R
FT STEWART     CLOUDY    51  48  89 CALM      30.09R
ALBANY         CLOUDY    52  46  80 NW9       30.18R
HUNTER AFB     CLEAR     49  49 100 W6        30.08R
MOODY AFB      CLEAR     46  44  94 W5        30.12R
BRUNSWICK      CLEAR     48  48 100 W5        30.12S


CITY           SKY/WX    TMP DP  RH WIND       PRES   REMARKS
BAINBRIDGE*    CLOUDY    48  46  93 NW3       30.18R
MOULTRIE*      PTCLDY    46  46 100 CALM      30.16R
VIDALIA*       CLEAR     50  46  87 NW6       30.13R
WAYCROSS*      CLEAR     49  49 100 W5        30.13R
DOUGLAS*       CLOUDY    52  46  82 CALM      30.15R
$$




USA.gov is the U.S. government's official web portal to all federal, state and local government web resources and services.